This demonstration page uses our WeatherBlox Daily Observations layout. Learn more.

Left ArrowRight Arrow

38.88101, -77.10428

Hourly Observations for January 4, 2021

Temp ( °F °C ) Dew Point ( °F °C ) Humidity (%) Winds ( mph kmh ) Pressure ( in mb ) Visibility ( mi km ) Precip ( " mm )
12:26 am 00:26 Mostly Cloudy 37 2.8 35 1.7 93 93 NNW 6 9 29.99 1016 7 11 0.00 0.00
12:52 am 00:52 Mostly Cloudy 37 2.8 35 1.7 93 93 NW 5 7 29.98 1015 8 13 0.00 0.00
1:52 am 01:52 Mostly Cloudy 37 2.8 35 1.7 93 93 NW 5 7 29.99 1016 9 14 0.00 0.00
2:16 am 02:16 Partly Cloudy 36 2.2 34 1.1 93 93 NW 7 11 30.00 1016 9 14 0.00 0.00
2:52 am 02:52 Mostly Clear 36 2.2 34 1.1 93 93 NW 5 7 30.00 1016 9 14 0.00 0.00
3:52 am 03:52 Mostly Cloudy 35 1.7 33 0.6 93 93 N 5 7 29.99 1016 9 14 0.00 0.00
4:52 am 04:52 Mostly Cloudy 36 2.2 33 0.6 89 89 N 6 9 30.00 1016 9 14 0.00 0.00
5:52 am 05:52 Mostly Clear 35 1.7 32 0 89 89 N 3 6 30.01 1016 10 16 0.00 0.00
6:52 am 06:52 Mostly Clear 36 2.2 32 0 86 86 Calm 30.03 1017 10 16 0.00 0.00
7:52 am 07:52 Mostly Sunny 35 1.7 31 -0.6 85 85 N 6 9 30.04 1017 10 16 0.00 0.00
8:52 am 08:52 Mostly Cloudy 37 2.8 34 1.1 89 89 N 7 11 30.06 1018 10 16 0.00 0.00
9:52 am 09:52 Mostly Cloudy 41 5 35 1.7 79 79 NNW 7 11 30.07 1018 10 16 0.00 0.00
10:52 am 10:52 Cloudy 44 6.7 36 2.2 73 73 NNW 7 11 30.05 1018 10 16 0.00 0.00
11:52 am 11:52 Cloudy 45 7.2 35 1.7 68 68 NW 8 13 30.02 1017 10 16 0.00 0.00
12:52 pm 12:52 Cloudy 46 7.8 36 2.2 68 68 NW 5 7 30.00 1016 10 16 0.00 0.00
1:52 pm 13:52 Cloudy 46 7.8 36 2.2 68 68 WNW 5 7 29.98 1015 10 16 0.00 0.00
2:52 pm 14:52 Cloudy 46 7.8 36 2.2 68 68 NW 8 13 29.98 1015 10 16 0.00 0.00
3:52 pm 15:52 Cloudy 45 7.2 35 1.7 68 68 NW 7 11 29.99 1016 10 16 0.00 0.00
4:52 pm 16:52 Cloudy 44 6.7 35 1.7 71 71 NNW 10 17 29.99 1016 10 16 0.00 0.00
5:52 pm 17:52 Cloudy 44 6.7 35 1.7 71 71 NW 8 13 30.00 1016 10 16 0.00 0.00
6:52 pm 18:52 Cloudy 43 6.1 34 1.1 71 71 NNW 7 11 30.01 1016 10 16 0.00 0.00
7:52 pm 19:52 Cloudy 43 6.1 34 1.1 71 71 NNW 7 11 30.00 1016 10 16 0.00 0.00
8:52 pm 20:52 Cloudy 42 5.6 35 1.7 76 76 NE 9 15 29.98 1015 10 16 0.00 0.00
9:52 pm 21:52 Cloudy 43 6.1 33 0.6 68 68 NNW 3 6 29.98 1015 10 16 0.00 0.00
10:52 pm 22:52 Cloudy 42 5.6 34 1.1 73 73 Calm 29.96 1015 10 16 0.00 0.00
11:52 pm 23:52 Cloudy 42 5.6 34 1.1 73 73 N 3 6 29.95 1014 10 16 0.00 0.00

Powered by AerisWeather